Regional Weather Roundup
Issued by NWS Grand Forks, ND

Home | Current Version | Previous Version | Graphics & Text | Print | Product List | Glossary On
Versions: 1 2 3 4 5 6 7 8 9 10 11 12 13 14 15 16 17 18 19 20 21 22 23 24 25 26 27 28 29 30 31 32 33 34 35 36 37 38 39 40 41 42 43 44 45 46 47 48 49 50
000
ASUS43 KFGF 250010
RWRFGF
PRAIRIE TO PINES  WEATHER ROUNDUP
NATIONAL WEATHER SERVICE EASTERN NORTH DAKOTA/GRAND FORKS ND
600 PM CST WED DEC 24 2014

 **SATELLITE DATA USED TO AUGMENT SKY COVER AT AUTOMATED STATIONS**
 *****  WEATHER ACROSS EASTERN NORTH DAKOTA  *****

CITY           SKY/WX    TMP DP  RH WIND       PRES   REMARKS
GRAND FORKS    CLOUDY    27  25  92 S16       29.50F WCI  15
6HR MIN TEMP:  26; 6HR MAX TEMP:  27;

GRAND FRKS AFB CLOUDY    28  28 100 S10       29.49F WCI  18
GRAND FRKS NWS   N/A     27 N/A N/A S7          N/A  WCI  19
DEVILS LAKE    CLOUDY    28  25  86 SW9       29.41F WCI  20
6HR MIN TEMP:  28; 6HR MAX TEMP:  30;

FARGO          CLOUDY    29  25  85 MISG      29.54F
WAHPETON ARPT  CLOUDY    28  27  93 S10       29.57F WCI  19
$$

 ***** WEATHER ACROSS CENTRAL AND WESTERN NORTH DAKOTA  *****

CITY           SKY/WX    TMP DP  RH WIND       PRES   REMARKS
BISMARCK       CLOUDY    31  28  89 E3        29.47S
6HR MIN TEMP:  28; 6HR MAX TEMP:  33; 6HR PCP: TRACE;

MINOT          PTCLDY    32  27  81 W15       29.43R WCI  22
6HR MIN TEMP:  30; 6HR MAX TEMP:  35;

JAMESTOWN      CLOUDY    30  25  81 S10       29.45F WCI  21
6HR MIN TEMP:  27; 6HR MAX TEMP:  30;

MINOT AFB      PTCLDY    27  27  99 W10       29.42S WCI  17
GARRISON         N/A     34  30  85 NW8       29.44R
WILLISTON      PTCLDY    30  24  78 N5        29.48R
6HR MIN TEMP:  29; 6HR MAX TEMP:  38;

DICKINSON      CLOUDY    35  31  85 NW8       29.44F
6HR MIN TEMP:  34; 6HR MAX TEMP:  37;

HETTINGER      CLOUDY    34  28  79 NW7       29.47S
6HR MIN TEMP:  33; 6HR MAX TEMP:  36;

$$

 *****  OTHER AIRPORT OBSERVATIONS IN OUR AREA  *****

CITY           SKY/WX    TMP DP  RH WIND       PRES   REMARKS
WALHALLA         N/A     28  28 100 S10       29.44S WCI  19
GRAFTON AIRPOR NOT AVBL
VALLEY CITY AR CLOUDY    27  27 100 SW17G23   29.47F WCI  14
CANDO          FAIR      25  23  93 CALM      29.40F
CAVALIER APRT  MIX PCPN  27  27 100 S14G20    29.44F WCI  15
GWINNER        CLOUDY    30  30 100 CALM      29.54F
SHEYENNE NWR     N/A     27  25  92 SW12      29.95  WCI  17
ROLLA          FAIR      25  25 100 SW3       29.38S
 ***** THE ABOVE OBSERVATIONS ARE NON NWS ARE NOT QUALITY
       CONTROLLED AND MAY MIS-REPORT RAIN FOR SNOW...
$$

  *****  WEATHER ACROSS NORTHERN MINNESOTA  *****

CITY           SKY/WX    TMP DP  RH WIND       PRES   REMARKS
FLAG ISLAND    DRIZZLE   28  27  93 S8        29.48F WCI  20
WARROAD        CLOUDY    28  25  86 SW6       29.50F WCI  22
ROSEAU         CLOUDY    28  25  86 S8        29.49F WCI  20
HALLOCK        LGT SNOW  28  27  93 S16       29.47F WCI  17
THF RVR FALLS  CLOUDY    27  25  93 S15       29.51F WCI  15
6HR MIN TEMP:  27; 6HR MAX TEMP:  28;

BAUDETTE       CLOUDY    30  26  85 SW8       29.50F WCI  22
6HR MIN TEMP:  30; 6HR MAX TEMP:  33; 6HR PCP: TRACE;

WASKISH        CLOUDY    30  30 100 CALM      29.52F
CROOKSTON      CLOUDY    27  27 100 S16       29.53F WCI  14
STEPHEN NDAWN    N/A     27  25  93 S15         N/A  WCI  15
GREENBUSH NDAW   N/A     27  25  93 S14         N/A  WCI  15
$$
  *****  WEATHER ACROSS CENTRAL AND WEST MINNESOTA  *****

CITY           SKY/WX    TMP DP  RH WIND       PRES   REMARKS
FOSSTON        CLOUDY    25  25 100 S15       29.53F WCI  12
BEMIDJI        CLOUDY    29  27  89 SW5       29.52F WCI  24
PARK RAPIDS    CLOUDY    30  27  88 SW8       29.54S WCI  22
6HR MIN TEMP:  30; 6HR MAX TEMP:  33;

ELBOW LAKE     CLOUDY    27  26  96 S8        29.58F WCI  18
6HR MIN TEMP:  26; 6HR MAX TEMP:  28;

WADENA         CLOUDY    27  27 100 SW8       29.57R WCI  18
DETROIT LAKES  CLOUDY    28  27  93 S8        29.55F WCI  20
MOORHEAD       CLOUDY    28  28 100 S12       29.56F FOG     WCI  18
FERGUS FALLS   CLOUDY    27  25  93 S8        29.60F WCI  18
MORRIS MN      CLOUDY    28  27  93 SW12      29.59F WCI  18
STAPLES        CLOUDY    28  28 100 SW6       29.57R WCI  22
$$
  *****  WEATHER ELSEWHERE ACROSS MINNESOTA  *****

CITY           SKY/WX    TMP DP  RH WIND       PRES   REMARKS
DULUTH         CLOUDY    32  29  88 W7        29.53F
6HR MIN TEMP:  32; 6HR MAX TEMP:  34; 6HR PCP: TRACE;

INTRNTL FALLS  LGT SNOW  32  30  92 CALM      29.51F FOG
6HR MIN TEMP:  32; 6HR MAX TEMP:  33; 6HR PCP: TRACE;

ELY            CLOUDY    30  30 100 CALM      29.52F
CLOQUET        CLOUDY    32  30  93 CALM      29.54F
WHEATON        CLOUDY    27  25  93 S9        29.60F WCI  17
BRAINERD       CLOUDY    32  30  92 SW5       29.56F
6HR MIN TEMP:  32; 6HR MAX TEMP:  33;

HIBBING        CLOUDY    33  30  88 CALM      29.53S
6HR MIN TEMP:  33; 6HR MAX TEMP:  34; 6HR PCP: TRACE;

ALEXANDRIA     CLOUDY    28  26  92 SW13      29.58F WCI  17
6HR MIN TEMP:  28; 6HR MAX TEMP:  30;

SAINT CLOUD    CLOUDY    34  28  79 W6        29.59F
6HR MIN TEMP:  34; 6HR MAX TEMP:  37;

MINNEAPOLIS    CLOUDY    34  30  85 W9        29.62F
6HR MIN TEMP:  34; 6HR MAX TEMP:  36;

$$

  *****  WEATHER ACROSS SOUTH DAKOTA  *****

CITY           SKY/WX    TMP DP  RH WIND       PRES   REMARKS
SIOUX FALLS    CLOUDY    26  24  92 SW5       29.65F FOG     WCI  20
6HR MIN TEMP:  25; 6HR MAX TEMP:  26; 6HR PCP: TRACE;

BROOKINGS      NOT AVBL
WATERTOWN      CLOUDY    25  23  92 SW13      29.56F WCI  14
6HR MIN TEMP:  24; 6HR MAX TEMP:  26;

HURON          CLOUDY    27  25  92 MISG      29.59F
6HR MIN TEMP:  25; 6HR MAX TEMP:  29;

SISSETON         N/A     28  26  92 SW9       29.55F WCI  19
ABERDEEN       CLOUDY    28  25  88 S12       29.56F WCI  18
6HR MIN TEMP:  27; 6HR MAX TEMP:  29;

MITCHELL       MOCLDY    28  26  92 S9        29.63F WCI  19
PIERRE         PTCLDY    25  20  81 S5        29.52F WCI  19
6HR MIN TEMP:  22; 6HR MAX TEMP:  29;

MOBRIDGE       CLOUDY    26  21  81 S8        29.47F WCI  18
RAPID CITY     CLOUDY    35  25  66 E5        29.46F
6HR MIN TEMP:  30; 6HR MAX TEMP:  37;

$$

  *****  SOME WEATHER IN NEARBY STATES *****

CITY           SKY/WX    TMP DP  RH WIND       PRES   REMARKS
GLASGOW MT     MOCLDY    33  28  81 N6        29.51S
6HR MIN TEMP:  33; 6HR MAX TEMP:  37;

GREAT FALLS MT SNOW      31  31 100 N9        29.50R VSB 1/2 WCI  23
6HR MIN TEMP:  31; 6HR MAX TEMP:  32; 6HR PCP:  0.18;

CHEYENNE WY    CLOUDY    40  17  39 W23G35    29.58F
6HR MIN TEMP:  37; 6HR MAX TEMP:  41;

SCOTTSBLUFF NE PTCLDY    41  26  55 W12       29.57F
6HR MIN TEMP:  27; 6HR MAX TEMP:  44;

OMAHA NE       CLOUDY    30  26  85 SW9       29.78S WCI  22
6HR MIN TEMP:  30; 6HR MAX TEMP:  31;

DES MOINES IA  FLURRIES  34  30  85 W10       29.74R
6HR MIN TEMP:  34; 6HR MAX TEMP:  35; 6HR PCP: TRACE;

DAVENPORT IA   CLOUDY    36  31  82 NW13G23   29.63R
6HR MIN TEMP:  35; 6HR MAX TEMP:  36;

CHICAGO IL     CLOUDY    37  34  89 W12       29.51R
6HR MIN TEMP:  37; 6HR MAX TEMP:  40;

EAU CLAIRE WI  CLOUDY    35  29  78 W7        29.58S
6HR MIN TEMP:  34; 6HR MAX TEMP:  36;

LA CROSSE WI   CLOUDY    37  31  78 NW9       29.60S
6HR MIN TEMP:  36; 6HR MAX TEMP:  38;

$$

  *****  SOME NATIONAL WEATHER *****

CITY           SKY/WX    TMP DP  RH WIND       PRES   REMARKS
LA GUARDIA NY  FOG       55  54  94 S15       29.61F VSB 1/2
6HR MIN TEMP:  44; 6HR MAX TEMP:  54; 6HR PCP:  0.31;

RALEIGH NC     LGT RAIN  65  61  87 S9        29.67F
6HR MIN TEMP:  60; 6HR MAX TEMP:  66; 6HR PCP:  0.27;

ATLANTA GA     CLOUDY    51  45  79 W12G21    29.80R
6HR MIN TEMP:  51; 6HR MAX TEMP:  62; 6HR PCP: TRACE;

NEW ORLEANS LA MOCLDY    49  34  56 NW16      30.02R
6HR MIN TEMP:  49; 6HR MAX TEMP:  57;

OKLAHOMA CITY  CLEAR     40  26  57 W5        29.93S
6HR MIN TEMP:  40; 6HR MAX TEMP:  50;

ALBUQUERQUE NM PTCLDY    39   9  29 SE3       30.00S
6HR MIN TEMP:  32; 6HR MAX TEMP:  42;

SALT LAKE CITY CLOUDY    42  22  44 S9        29.66F
6HR MIN TEMP:  36; 6HR MAX TEMP:  43;



USA.gov is the U.S. government's official web portal to all federal, state and local government web resources and services.